Meteo Giornale » Osservazioni meteo Italia » Bologna-Borgo Panigale

ore: 02:50 - Osservazioni Meteo Bologna-Borgo Panigale
Lat. 44° 32' N Lon. 11° 18' E Alt. 36 metri s.l.m.

sereno Europe/Rome

13 °C

Sereno

Temp. 24 Ore

7 °C

23 °C

Sud/Sud-Ovest

14.8 Km/h

Dew point 2 °C

Umidità 47 %

Visibilità  10 Km

Il sole sorge alle ore 06:06

Il sole tramonta alle ore 18:34

Data e Ora Cielo e Fenomeni T °C DP °C Um. % Pres. hPa Vis. km Vento km/h
Oggi h: 02:50 sereno Sereno 13 2 47 1014 10 S/SO 14.8
Oggi h: 02:20 sereno Sereno 12 3 54 1015 10 S/SO 11.1
Oggi h: 01:50 sereno Sereno 10 4 66 1015 10 S/SO 7.4
Oggi h: 01:20 sereno Sereno 10 4 66 1016 10 N 5.5
Oggi h: 00:50 sereno Sereno 12 4 57 1016 10 NO 7.4
Oggi h: 00:20 sereno Sereno 12 3 54 1016 10 O/NO 9.3
Ieri h: 23:50 sereno Sereno 14 2 44 1016 10 S/SO 14.8
Ieri h: 23:20 sereno Sereno 15 2 41 1016 10 S/SO 13
Ieri h: 22:50 sereno Sereno 15 2 41 1016 10 S/SO 13
Ieri h: 22:20 sereno Sereno 14 3 47 1016 10 SO 9.3
Ieri h: 21:50 sereno Sereno 15 4 47 1016 10 S/SO 14.8
Ieri h: 20:50 sereno Sereno 16 5 47 1017 10 S/SO 13
Ieri h: 20:20 sereno Sereno 16 4 44 1017 10 S/SO 9.3
Ieri h: 19:50 sereno Sereno 17 4 41 1017 10 N 5.5
Ieri h: 19:20 sereno Sereno 17 3 39 1017 10 N 1.8
Ieri h: 18:50 sereno Sereno 19 3 34 1017 10 N 3.7
Ieri h: 18:20 sereno Sereno 21 4 32 1017 10 N 3.7
Ieri h: 17:50 sereno Sereno 22 4 30 1017 10 N 3.7
Ieri h: 17:20 sereno Sereno 23 3 26 1017 10 N 5.5
Ieri h: 16:50 sereno Sereno 23 3 26 1017 10 N 5.5
Ieri h: 16:20 sereno Sereno 23 3 26 1017 10 N/NE 7.4
Ieri h: 15:50 sereno Sereno 23 4 28 1018 10 NE 9.3
Ieri h: 15:20 sereno Sereno 23 3 26 1018 10 N/NE 7.4
Ieri h: 14:50 sereno Sereno 23 3 26 1018 10 N 9.3
Ieri h: 14:20 sereno Sereno 23 3 26 1019 10 N 7.4
Ieri h: 13:50 sereno Sereno 22 4 30 1019 10 E 7.4
Ieri h: 13:20 sereno Sereno 22 4 30 1020 10 N 7.4
Ieri h: 12:50 sereno Sereno 22 5 32 1021 10 N 5.5
Ieri h: 12:20 sereno Sereno 21 4 32 1021 10 N 5.5
Ieri h: 11:50 sereno Sereno 21 5 35 1022 10 NO 7.4
Ieri h: 11:20 sereno Sereno 21 5 35 1022 10 O 7.4
Ieri h: 10:50 sereno Sereno 19 4 37 1022 10 O 9.3
Ieri h: 10:20 sereno Sereno 18 4 39 1022 10 O 11.1
Ieri h: 09:50 sereno Sereno 17 4 41 1023 10 O/NO 11.1
Ieri h: 09:20 sereno Sereno 16 5 47 1023 10 N 5.5
Ieri h: 08:50 sereno Sereno 14 4 50 1023 10 N 5.5
Ieri h: 08:20 sereno Sereno 12 3 54 1023 10 SO 7.4
Ieri h: 07:50 sereno Sereno 10 3 61 1023 10 S/SO 11.1
Ieri h: 07:20 sereno Sereno 9 3 66 1023 10 S/SO 11.1
Ieri h: 06:50 sereno Sereno 8 2 65 1023 10 S/SO 11.1
Ieri h: 06:20 sereno Sereno 7 2 70 1023 10 O/SO 7.4
Ieri h: 05:50 sereno Sereno 8 2 65 1023 10 S/SO 11.1
Ieri h: 05:20 sereno Sereno 8 2 65 1023 10 S/SO 11.1
Ieri h: 04:50 sereno Sereno 8 3 70 1023 10 S/SO 9.3
Ieri h: 04:20 sereno Sereno 8 3 70 1023 10 SO 11.1
Ieri h: 03:50 sereno Sereno 9 3 66 1023 10 S/SO 13
Ieri h: 03:20 sereno Sereno 9 3 66 1023 10 S/SO 14.8
Ieri h: 02:50 sereno Sereno 9 3 66 1023 10 S/SO 13